Weather History for Olympia, WA

Change the Weather History Date:

Friday, October 19, 2012

  Actual Average Record
Temperature  
Mean Temperature 51 °F 49 °F  
Max Temperature 57 °F 59 °F 69 °F (1952)
Min Temperature 45 °F 40 °F 21 °F (1976)
Degree Days  
Heating Degree Days 14 16  
Month to date heating degree days 245 249  
Since 1 July heating degree days 590 589  
Cooling Degree Days 0 0  
Month to date cooling degree days 0 0  
Year to date cooling degree days 82 106  
Growing Degree Days 2 (Base 50)    
Moisture  
Dew Point 51 °F    
Average Humidity 85    
Maximum Humidity 93    
Minimum Humidity 77    
Precipitation  
Precipitation 0.15 in 0.16 in 1.26 in (2007)
Month to date precipitation 2.30 2.26  
Year to date precipitation 34.93 31.57  
Sea Level Pressure  
Sea Level Pressure 29.82 in    
Wind  
Wind Speed 10 mph (SW)    
Max Wind Speed 20 mph    
Max Gust Speed 25 mph    
Visibility 8 miles    
Events Rain    
T = Trace of Precipitation, MM = Missing Value Source: NWS Daily Summary

Daily Weather History Graph

Daily Weather History Graph

Search for Another Location

Airport:

Trip Planner

Search our weather history database for the weather conditions in past years. The results will help you decide how hot, cold, wet, or windy it might be!

Date:

Astronomy

Oct. 19, 2012 Rise Set
Actual Time 7:36 AM PDT 6:15 PM PDT
Civil Twilight 7:05 AM PDT 6:46 PM PDT
Nautical Twilight 6:29 AM PDT 7:22 PM PDT
Astronomical Twilight 5:54 AM PDT 7:57 PM PDT
Moon 12:37 PM PDT (10/19) 9:47 PM PDT (10/19)
Length of Visible Light 11h 41m
Length of Day
10h 39m
Waxing Crescent, 24% of the Moon is Illuminated
Oct 19
Waxing Crescent
Oct 21
First Quarter
Oct 29
Full
Nov 6
Last Quarter
Nov 13
New

Hourly Weather History & Observations

Time (PDT) Temp. Dew Point Humidity Pressure Visibility Wind Dir Wind Speed Gust Speed Precip Events Conditions
12:54 AM 55.0 °F 53.1 °F 93% 29.84 in 8.0 mi SSW 9.2 mph - 0.01 in   Unknown
1:54 AM 55.0 °F 53.1 °F 93% 29.84 in 4.0 mi SSW 12.7 mph - 0.00 in Rain Light Rain
2:29 AM 55.4 °F 53.6 °F 94% 29.85 in 2.5 mi SSW 11.5 mph - 0.00 in Rain Light Rain
2:52 AM 55.4 °F 53.6 °F 94% 29.83 in 4.0 mi SSW 13.8 mph - 0.01 in   Mist
2:54 AM 55.0 °F 54.0 °F 96% 29.83 in 4.0 mi SSW 12.7 mph - 0.01 in   Mist
3:54 AM 55.0 °F 53.1 °F 93% 29.82 in 5.0 mi South 16.1 mph 20.7 mph 0.01 in Rain Light Rain
4:54 AM 55.0 °F 53.1 °F 93% 29.81 in 9.0 mi South 12.7 mph - 0.00 in Rain Light Rain
5:54 AM 55.0 °F 53.1 °F 93% 29.81 in 10.0 mi South 15.0 mph - N/A   Unknown
6:54 AM 55.0 °F 54.0 °F 96% 29.81 in 6.0 mi South 12.7 mph - 0.00 in Rain Light Rain
7:07 AM 55.4 °F 53.6 °F 94% 29.80 in 3.0 mi South 13.8 mph - 0.01 in Rain Light Rain
7:47 AM 55.4 °F 53.6 °F 94% 29.81 in 2.5 mi South 11.5 mph - 0.02 in Rain Light Rain
7:54 AM 55.0 °F 54.0 °F 96% 29.81 in 3.0 mi SSW 12.7 mph - 0.03 in Rain Light Rain
7:58 AM 55.4 °F 53.6 °F 94% 29.81 in 2.0 mi SSW 11.5 mph - 0.00 in Rain Light Rain
8:40 AM 55.4 °F 53.6 °F 94% 29.82 in 4.0 mi South 12.7 mph - 0.02 in Rain Light Rain
8:54 AM 55.9 °F 54.0 °F 93% 29.82 in 7.0 mi South 13.8 mph - 0.02 in   Overcast
9:54 AM 55.9 °F 53.1 °F 90% 29.85 in 10.0 mi SW 8.1 mph - N/A   Overcast
10:54 AM 55.9 °F 53.1 °F 90% 29.86 in 10.0 mi SW 6.9 mph - N/A   Overcast
11:54 AM 57.0 °F 51.1 °F 81% 29.86 in 10.0 mi West 9.2 mph - N/A   Mostly Cloudy
12:54 PM 57.0 °F 51.1 °F 81% 29.84 in 10.0 mi WSW 8.1 mph - N/A   Overcast
1:54 PM 55.9 °F 51.1 °F 84% 29.83 in 10.0 mi SW 11.5 mph - N/A   Overcast
2:45 PM 55.4 °F 51.8 °F 88% 29.82 in 4.0 mi WSW 10.4 mph - 0.00 in Rain Light Rain
2:54 PM 55.0 °F 51.1 °F 86% 29.82 in 10.0 mi WSW 6.9 mph - 0.00 in Rain Light Rain
3:01 PM 55.4 °F 50.0 °F 82% 29.81 in 10.0 mi WSW 9.2 mph - 0.00 in   Unknown
3:38 PM 53.6 °F 48.2 °F 82% 29.82 in 10.0 mi WNW 5.8 mph - 0.00 in   Overcast
3:54 PM 54.0 °F 48.0 °F 80% 29.82 in 10.0 mi WSW 6.9 mph - 0.00 in   Overcast
4:54 PM 55.0 °F 48.0 °F 77% 29.81 in 10.0 mi SSW 4.6 mph - N/A   Mostly Cloudy
5:54 PM 53.1 °F 46.9 °F 80% 29.79 in 10.0 mi WSW 9.2 mph - N/A   Mostly Cloudy
6:54 PM 51.1 °F 48.0 °F 89% 29.79 in 10.0 mi SSW 8.1 mph - N/A   Mostly Cloudy
7:54 PM 50.0 °F 46.9 °F 89% 29.79 in 10.0 mi SW 4.6 mph - N/A   Mostly Cloudy
8:54 PM 50.0 °F 48.0 °F 93% 29.79 in 5.0 mi SSW 6.9 mph - 0.07 in Rain Light Rain
9:54 PM 50.0 °F 48.0 °F 93% 29.80 in 10.0 mi SSW 6.9 mph - 0.01 in   Unknown
10:54 PM 48.9 °F 46.0 °F 90% 29.81 in 10.0 mi SW 9.2 mph - N/A   Unknown
11:54 PM 46.9 °F 44.1 °F 90% 29.84 in 10.0 mi SW 5.8 mph - N/A   Unknown